AirNav   Duncan Aviation - Near you to keep you flying
 
 707 users online  

8T8 San Geronimo Airpark
San Antonio, Texas, USA

GOING TO SAN ANTONIO?


FAA INFORMATION EFFECTIVE 19 MAY 2022

Location

FAA Identifier: 8T8
Lat/Long: 29-30-36.7000N 098-47-54.3000W
29-30.611667N 098-47.905000W
29.5101944,-98.7984167
(estimated)
Elevation: 1040 ft. / 317 m (estimated)
Variation: 07E (1985)
From city: 10 miles W of SAN ANTONIO, TX
Time zone: UTC -5 (UTC -6 during Standard Time)
Zip code: 78253

Airport Operations

Airport use: Open to the public
Activation date: 05/1981
Control tower: no
ARTCC: HOUSTON CENTER
FSS: SAN ANGELO FLIGHT SERVICE STATION
NOTAMs facility: SJT (NOTAM-D service available)
Attendance: UNATNDD
Wind indicator: yes
Segmented circle: no

Airport Communications

CTAF: 122.9
WX AWOS-3 at CVB (10 nm S): 119.25 (830-931-0232)
WX AWOS-3 at 5C1 (14 nm NE): 118.725 (830-755-9099)
WX ASOS at SAT (17 nm E): PHONE 210-805-5583

Nearby radio navigation aids

VOR radial/distance  VOR name  Freq  Var
SATr237/19.3SAN ANTONIO VORTAC116.8008E
SSFr300/(23.9)STINSON VOR108.4009E
RNDr264/26.8RANDOLPH VORTAC112.3005E
CSIr131/32.9CENTER POINT VORTAC117.5008E

 
NDB name  Hdg/Dist  Freq  Var  ID
ALAMO240/13.336804EAN .- -.
DEVINE011/23.535907EHHH .... .... ....

Airport Services

Parking: tiedowns

Runway Information

Runway 17/35

Dimensions: 3000 x 40 ft. / 914 x 12 m
SHOULDERS SOFT & MUDDY WHEN WET.
Surface: asphalt, in good condition
Runway edge lights: NO LIGHTS AT ARPT.
Runway edge markings: NRS 35 FT HIGH. CNTRLN 4 INCH WIDE BY 10 FT LONG WITH 30 FT SPACES.
RUNWAY 17  RUNWAY 35
Latitude: 29-30.858538N29-30.363448N
Longitude: 098-47.905867W098-47.904235W
Elevation: 1037.0 ft.1005.0 ft.
Traffic pattern: leftleft
Runway heading: 173 magnetic, 180 true353 magnetic, 360 true
Markings: NSTD, in good conditionNSTD, in good condition
Obstructions: 20 ft. trees, 201 ft. from runway, 100 ft. left of centerline
10-20 FT TREES 100 FT EAST OF CNTRLN FULL LEN OF RWY.
25 ft. trees, 201 ft. from runway, 92 ft. right of centerline
10-20 FT TREES 100 FT EAST OF CNTRLN FULL LEN OF RWY.

Airport Ownership and Management from official FAA records

Ownership: Privately-owned
Owner: SAN GERONIMO AIRPARK P.O.A.
15464 CULEBRA BOX 30
SAN ANTONIO, TX 78253
Phone 210-488-5088
RON O'DEA, S.G.A.P.O.A.
Manager: LEWIS MASON
15464 CULEBRA BOX 27
SAN ANTONIO, TX 78253
Phone 210-688-9072

Airport Operational Statistics

Aircraft based on the field: 103
Single engine airplanes: 100
Helicopters: 1
Ultralights: 2
    
Aircraft operations: avg 40/week *
71% local general aviation
29% transient general aviation
* for 12-month period ending 08 May 2020

Additional Remarks

+15 FT HNGRS LCTD 112 FT WEST ALG RWY 17/35.
LIMIT 3 TGLS DURG DAYTIME.
FOR CD CTC SAN ANTONIO APCH AT 210-805-5516.
POWERED PARACHUTES PROHIBITED.
WILDLIFE ON & INVOF ARPT.

Instrument Procedures

There are no published instrument procedures at 8T8.

Some nearby airports with instrument procedures:

KCVB - Castroville Municipal Airport (10 nm S)
KSKF - Kelly Field Airport (14 nm SE)
5C1 - Boerne Stage Field Airport (14 nm NE)
KSAT - San Antonio International Airport (17 nm E)
KSSF - Stinson Municipal Airport (20 nm SE)
 
Loc | Ops | Rwys | IFR | FBO | Links
Com | Nav | Svcs | Stats | Notes
Area around 8T8 (San Geronimo Airpark)
 
Road maps at: MapQuest Bing Google
 
Aerial photo
WARNING: Photo may not be current or correct
Aerial photo of 8T8 (San Geronimo Airpark)
Photo by Brian Goode
Photo taken 15-Jan-2014
looking north.

Do you have a better or more recent aerial photo of San Geronimo Airpark that you would like to share? If so, please send us your photo.

 
Sectional chart

 
Airport distance calculator
Flying to San Geronimo Airpark? Find the distance to fly.

From to 8T8

Sunrise and sunset
Times for 21-May-2022
 Local
(UTC-5)
 Zulu
(UTC)
Morning civil twilight06:1411:14
Sunrise06:4011:40
Sunset20:2301:23
Evening civil twilight20:4901:49

Current date and time
Zulu (UTC)  22-May-2022 04:37:41
Local (UTC-5)  21-May-2022 23:37:41
 
METAR
K5C1 
14nm NE 
220415Z AUTO 34007KT 10SM CLR 23/15 A2995 RMK AO1
KSKF 
15nm SE 
220412Z AUTO 08031G38KT 10SM VCTS -RA FEW060 OVC095 27/17 A2984 RMK AO2 RAB12 TSE10 PRESFR SLP096
KSAT 
17nm E 
220357Z 12021G40KT 10SM -TSRA SCT047CB BKN110 OVC220 26/17 A2988 RMK AO2 PK WND 10037/0353 LTG DSNT ALQDS WSHFT 55 CONS LTGICCG TS ALQDS MOVG SE P0000 T02560167 $
KSSF 
20nm SE 
220422Z AUTO 08015G22KT 10SM -TSRA SCT034 BKN120 30/17 A2994 RMK AO2 LTG DSNT ALQDS TSB16 P0000 T03000167 $
TAF
KSKF 
15nm SE 
220200Z 2202/2308 09012KT 9999 VCSH BKN050 OVC200 QNH2983INS BECMG 2202/2203 03014KT 8000 -SHRA VCTS SCT018 OVC040CB QNH2986INS TEMPO 2203/2207 VRB25G40KT 1600 +TSRAGR BKN018CB OVC030 BECMG 2208/2209 03015G25KT 9999 -SHRA BKN014 OVC020 QNH2998INS BECMG 2215/2216 03012G18KT 9999 NSW BKN020 BKN035 QNH3010INS BECMG 2218/2219 05009KT 9999 BKN040 QNH2999INS TX32/2202Z TN19/2212Z
KSAT 
17nm E 
220236Z 2203/2306 09015G25KT P6SM TSRA SCT060CB OVC250 TEMPO 2203/2207 VRB20G40KT 4SM TSRA OVC025CB FM220800 03012G22KT P6SM -SHRA OVC015 FM221600 03014KT P6SM BKN025 FM221800 06010KT P6SM BKN035
NOTAMs
Click for the latest NOTAMs
NOTAMs are issued by the DoD/FAA and will open in a separate window not controlled by AirNav.

 

 
 

Would you like to see your business listed on this page?

 If your business provides an interesting product or service to pilots, flight crews, aircraft, or users of the San Geronimo Airpark, you should consider listing it here.  To start the listing process, click on the button below
 
Add a business
 

Other Pages about San Geronimo Airpark

Update a link
 
Copyright © AirNav, LLC. All rights reserved. Privacy Policy  Contact